GAOFEN-12 03

Last updated on Mon Jun 22 2026 00:02:52 GMT+0000 (Coordinated Universal Time)

1 52912U 22069A 26172.51512469 .00000775 00000+0 10900-3 0 9990 2 52912 97.8270 60.2755 0002215 100.7744 259.3718 14.80040125215257
UTC large
Height (km)
Speed (km/s)
/
Latitude / Longitude
Inclination (degrees)
Orbital Period (minutes)
Azimuth
Elevation
Range (km)
Doppler Factor

Next 0 passes for location: London (51.5072 / 0.1276)

No passes found over London.
GAOFEN-12 03